ABR243B EGBB-EIDW

Flight info

Callsign ABR243B
Flight time 0h 41m
Altitude 26000
Route LUVUM DCT NANTI Y53 WAL L10 PENIL UL28 LELDO M145 BAGSO BAGSO3R
Aircraft B738/M-SDE2E3FGHIRWXY/LB1

Departure

Time 2026-05-04 09:55
Airport Birmingham Airport (EGBB)

Arrival

Time 2026-05-04 10:37
Airport Dublin Airport (EIDW)
Time Latitude Longitude Altitude Speed Heading
2026-05-04 09:28 52.45040 -1.75171 327 ft 0 kts 187°
2026-05-04 09:39 52.45041 -1.75170 327 ft 1 kts 187°
2026-05-04 09:39 52.45056 -1.75167 323 ft 3 kts 187°
2026-05-04 09:39 52.45076 -1.75163 323 ft 3 kts 187°
2026-05-04 09:39 52.45096 -1.75159 323 ft 3 kts 192°
2026-05-04 09:40 52.45113 -1.75148 323 ft 3 kts 223°
2026-05-04 09:40 52.45127 -1.75124 323 ft 3 kts 226°
2026-05-04 09:40 52.45141 -1.75102 323 ft 3 kts 211°
2026-05-04 09:40 52.45158 -1.75092 323 ft 3 kts 175°
2026-05-04 09:41 52.45176 -1.75099 325 ft 3 kts 151°
2026-05-04 09:42 52.45174 -1.75010 325 ft 0 kts 57°
2026-05-04 09:46 52.45034 -1.74761 326 ft 7 kts 146°
2026-05-04 09:46 52.45000 -1.74714 327 ft 6 kts 124°
2026-05-04 09:46 52.44990 -1.74668 326 ft 3 kts 103°
2026-05-04 09:47 52.44989 -1.74660 326 ft 0 kts 101°
2026-05-04 09:49 52.44989 -1.74659 326 ft 0 kts 101°
2026-05-04 09:49 52.44987 -1.74647 326 ft 3 kts 101°
2026-05-04 09:49 52.44980 -1.74585 324 ft 7 kts 101°
2026-05-04 09:51 52.45004 -1.73897 322 ft 10 kts 75°
2026-05-04 09:51 52.44969 -1.73813 323 ft 10 kts 146°
2026-05-04 09:51 52.44909 -1.73748 323 ft 11 kts 146°
2026-05-04 09:51 52.44849 -1.73687 321 ft 10 kts 161°
2026-05-04 09:52 52.44783 -1.73705 322 ft 11 kts 197°
2026-05-04 09:52 52.44717 -1.73727 323 ft 10 kts 167°
2026-05-04 09:52 52.44657 -1.73668 322 ft 11 kts 146°
2026-05-04 09:52 52.44591 -1.73595 323 ft 12 kts 146°
2026-05-04 09:53 52.44525 -1.73522 322 ft 11 kts 146°
2026-05-04 09:53 52.44461 -1.73451 323 ft 11 kts 146°
2026-05-04 09:53 52.44409 -1.73406 323 ft 8 kts 171°
2026-05-04 09:53 52.44354 -1.73466 323 ft 12 kts 233°
2026-05-04 09:54 52.44317 -1.73570 323 ft 10 kts 257°
2026-05-04 09:54 52.44351 -1.73654 324 ft 9 kts 327°
2026-05-04 09:54 52.44409 -1.73716 323 ft 12 kts 327°
2026-05-04 09:54 52.44685 -1.74024 325 ft 88 kts 325°
2026-05-04 09:55 52.45396 -1.74812 325 ft 156 kts 328°
2026-05-04 09:55 52.46355 -1.75887 896 ft 172 kts 328°
2026-05-04 09:55 52.47367 -1.77027 1762 ft 180 kts 328°
2026-05-04 09:55 52.48432 -1.78200 2598 ft 190 kts 332°
2026-05-04 09:56 52.49715 -1.78760 3351 ft 196 kts 360°
2026-05-04 09:56 52.51089 -1.78700 4128 ft 199 kts
2026-05-04 09:56 52.52515 -1.78531 4742 ft 212 kts
2026-05-04 09:56 52.53975 -1.78316 5467 ft 208 kts
2026-05-04 09:57 52.55470 -1.78011 5903 ft 226 kts
2026-05-04 09:57 52.57138 -1.77657 5999 ft 260 kts
2026-05-04 09:57 52.58913 -1.77283 6000 ft 272 kts
2026-05-04 09:57 52.60814 -1.76887 6525 ft 278 kts
2026-05-04 09:58 52.62727 -1.76492 7561 ft 277 kts
2026-05-04 09:58 52.64643 -1.76098 8537 ft 279 kts
2026-05-04 09:58 52.66586 -1.75699 9450 ft 284 kts
2026-05-04 10:00 52.78094 -1.87265 14100 ft 347 kts 309°
2026-05-04 10:00 52.79699 -1.90407 14286 ft 368 kts 309°
2026-05-04 10:02 52.91931 -2.14072 18808 ft 401 kts 309°
2026-05-04 10:04 53.04401 -2.38345 22422 ft 427 kts 311°
2026-05-04 10:04 53.06331 -2.42124 22967 ft 430 kts 311°
2026-05-04 10:04 53.08273 -2.45932 23462 ft 434 kts 311°
2026-05-04 10:04 53.10870 -2.51030 24032 ft 438 kts 311°
2026-05-04 10:05 53.12203 -2.53652 24320 ft 440 kts 311°
2026-05-04 10:05 53.14177 -2.57571 24755 ft 443 kts 310°
2026-05-04 10:05 53.16046 -2.61584 25148 ft 446 kts 309°
2026-05-04 10:05 53.17905 -2.65748 25542 ft 449 kts 308°
2026-05-04 10:06 53.19769 -2.69947 25946 ft 451 kts 309°
2026-05-04 10:06 53.21655 -2.74173 26068 ft 457 kts 309°
2026-05-04 10:06 53.23570 -2.78437 26072 ft 460 kts 309°
2026-05-04 10:08 53.34984 -3.03961 26070 ft 458 kts 309°
2026-05-04 10:08 53.36888 -3.08242 26078 ft 458 kts 309°
2026-05-04 10:08 53.38788 -3.12523 26079 ft 458 kts 309°
2026-05-04 10:08 53.40674 -3.16828 26073 ft 458 kts 308°
2026-05-04 10:09 53.42534 -3.21171 26075 ft 458 kts 308°
2026-05-04 10:09 53.44382 -3.25533 26078 ft 458 kts 308°
2026-05-04 10:09 53.46224 -3.29892 26076 ft 458 kts 308°
2026-05-04 10:09 53.48041 -3.34190 26072 ft 458 kts 308°
2026-05-04 10:10 53.49884 -3.38547 26070 ft 458 kts 308°
2026-05-04 10:10 53.51728 -3.42908 26071 ft 457 kts 308°
2026-05-04 10:10 53.53569 -3.47265 26080 ft 457 kts 308°
2026-05-04 10:10 53.55409 -3.51627 26081 ft 457 kts 308°
2026-05-04 10:11 53.57246 -3.55985 26077 ft 457 kts 308°
2026-05-04 10:11 53.59081 -3.60350 26082 ft 457 kts 308°
2026-05-04 10:11 53.60901 -3.64730 26076 ft 457 kts 306°
2026-05-04 10:11 53.62436 -3.69350 26077 ft 460 kts 296°
2026-05-04 10:12 53.63643 -3.74342 26082 ft 460 kts 293°
2026-05-04 10:12 53.64788 -3.79378 26083 ft 461 kts 293°
2026-05-04 10:12 53.65940 -3.84416 26079 ft 460 kts 293°
2026-05-04 10:12 53.67118 -3.89433 26087 ft 460 kts 294°
2026-05-04 10:13 53.68310 -3.94441 26087 ft 460 kts 294°
2026-05-04 10:13 53.69505 -3.99448 26088 ft 460 kts 294°
2026-05-04 10:13 53.70690 -4.04460 26086 ft 460 kts 292°
2026-05-04 10:13 53.71613 -4.09644 26076 ft 463 kts 284°
2026-05-04 10:14 53.72039 -4.15033 26089 ft 464 kts 275°
2026-05-04 10:14 53.72211 -4.20401 26088 ft 464 kts 274°
2026-05-04 10:16 53.73485 -4.58209 26082 ft 458 kts 275°
2026-05-04 10:16 53.73671 -4.63582 26093 ft 459 kts 275°
2026-05-04 10:16 53.73848 -4.68825 26065 ft 443 kts 275°
2026-05-04 10:16 53.74019 -4.73911 26060 ft 425 kts 275°
2026-05-04 10:17 53.74181 -4.78801 26067 ft 408 kts 275°
2026-05-04 10:17 53.74335 -4.83492 26069 ft 392 kts 275°
2026-05-04 10:19 53.74787 -5.13834 23311 ft 377 kts 259°
2026-05-04 10:19 53.74232 -5.18128 22954 ft 372 kts 258°
2026-05-04 10:19 53.73665 -5.22379 22477 ft 371 kts 258°
2026-05-04 10:19 53.73100 -5.26620 22027 ft 369 kts 258°
2026-05-04 10:20 53.72541 -5.30841 21527 ft 369 kts 258°
2026-05-04 10:20 53.71986 -5.35069 21049 ft 368 kts 258°
2026-05-04 10:20 53.71435 -5.39286 20563 ft 368 kts 258°
2026-05-04 10:20 53.70887 -5.43492 20094 ft 367 kts 258°
2026-05-04 10:21 53.70340 -5.47692 19630 ft 366 kts 258°
2026-05-04 10:21 53.69801 -5.51826 19171 ft 365 kts 258°
2026-05-04 10:21 53.69255 -5.56001 18722 ft 364 kts 258°
2026-05-04 10:21 53.68710 -5.60160 18256 ft 362 kts 258°
2026-05-04 10:22 53.67622 -5.68424 17239 ft 359 kts 258°
2026-05-04 10:22 53.67079 -5.72532 16741 ft 358 kts 258°
2026-05-04 10:22 53.66537 -5.76615 16250 ft 356 kts 258°
2026-05-04 10:23 53.65996 -5.80683 15768 ft 354 kts 258°
2026-05-04 10:23 53.65821 -5.81997 15615 ft 354 kts 258°
2026-05-04 10:25 53.62382 -6.07580 12349 ft 308 kts 257°
2026-05-04 10:25 53.61908 -6.11075 11865 ft 304 kts 257°
2026-05-04 10:25 53.61440 -6.14513 11391 ft 299 kts 257°
2026-05-04 10:25 53.60978 -6.17896 10914 ft 294 kts 258°
2026-05-04 10:26 53.60527 -6.21201 10456 ft 293 kts 258°
2026-05-04 10:26 53.60068 -6.24550 10168 ft 292 kts 258°
2026-05-04 10:26 53.59613 -6.27860 10122 ft 288 kts 258°
2026-05-04 10:26 53.59166 -6.31107 10099 ft 281 kts 258°
2026-05-04 10:27 53.58733 -6.34247 10083 ft 270 kts 258°
2026-05-04 10:27 53.58317 -6.37293 9947 ft 265 kts 260°
2026-05-04 10:27 53.57972 -6.40331 9679 ft 264 kts 261°
2026-05-04 10:27 53.57640 -6.43369 9390 ft 264 kts 261°
2026-05-04 10:28 53.57310 -6.46401 9120 ft 263 kts 261°
2026-05-04 10:28 53.56974 -6.49415 8839 ft 262 kts 258°
2026-05-04 10:28 53.56543 -6.52338 8554 ft 260 kts 257°
2026-05-04 10:28 53.56088 -6.55264 8167 ft 258 kts 256°
2026-05-04 10:29 53.55632 -6.58172 7776 ft 257 kts 256°
2026-05-04 10:29 53.55174 -6.61065 7395 ft 256 kts 256°
2026-05-04 10:29 53.54714 -6.63952 7000 ft 255 kts 256°
2026-05-04 10:29 53.54252 -6.66831 6606 ft 254 kts 256°
2026-05-04 10:30 53.53791 -6.69695 6186 ft 253 kts 256°
2026-05-04 10:30 53.53061 -6.72363 5745 ft 254 kts 231°
2026-05-04 10:30 53.51639 -6.74112 5354 ft 259 kts 201°
2026-05-04 10:30 53.49859 -6.74485 4961 ft 262 kts 171°
2026-05-04 10:31 53.48207 -6.73380 4557 ft 262 kts 141°
2026-05-04 10:31 53.46971 -6.71142 4166 ft 264 kts 122°
2026-05-04 10:32 53.45269 -6.55567 3600 ft 200 kts 93°
2026-05-04 10:33 53.45137 -6.53264 3342 ft 196 kts 93°
2026-05-04 10:33 53.45007 -6.51007 3100 ft 193 kts 93°
2026-05-04 10:33 53.44880 -6.48774 2833 ft 191 kts 93°
2026-05-04 10:33 53.44756 -6.46608 2589 ft 188 kts 93°
2026-05-04 10:34 53.44633 -6.44437 2331 ft 184 kts 93°
2026-05-04 10:34 53.44514 -6.42358 2077 ft 175 kts 93°
2026-05-04 10:34 53.44402 -6.40376 1851 ft 166 kts 93°
2026-05-04 10:34 53.44297 -6.38483 1599 ft 159 kts 93°
2026-05-04 10:35 53.44199 -6.36660 1277 ft 156 kts 92°
2026-05-04 10:35 53.44099 -6.34869 1071 ft 151 kts 91°
2026-05-04 10:35 53.44014 -6.33217 878 ft 137 kts 93°
2026-05-04 10:35 53.43914 -6.31649 662 ft 140 kts 90°
2026-05-04 10:36 53.43827 -6.30019 477 ft 141 kts 91°
2026-05-04 10:36 53.43739 -6.28393 280 ft 139 kts 92°
2026-05-04 10:36 53.43652 -6.26821 213 ft 125 kts 95°
2026-05-04 10:36 53.43580 -6.25578 210 ft 89 kts 96°
2026-05-04 10:37 53.43539 -6.24858 212 ft 33 kts 95°
2026-05-04 10:37 53.43524 -6.24606 217 ft 13 kts 101°
2026-05-04 10:37 53.43456 -6.24551 216 ft 13 kts 185°
2026-05-04 10:37 53.43382 -6.24572 213 ft 9 kts 208°
2026-05-04 10:39 53.43396 -6.25348 212 ft 14 kts 276°
2026-05-04 10:39 53.43404 -6.25498 213 ft 12 kts 275°
2026-05-04 10:39 53.43411 -6.25638 210 ft 12 kts 270°
2026-05-04 10:40 53.43384 -6.25777 218 ft 13 kts 247°
2026-05-04 10:40 53.43346 -6.25897 211 ft 11 kts 224°
2026-05-04 10:40 53.43275 -6.25889 216 ft 11 kts 158°
2026-05-04 10:40 53.43198 -6.25834 214 ft 13 kts 156°
2026-05-04 10:41 53.43118 -6.25777 210 ft 12 kts 157°
2026-05-04 10:41 53.43034 -6.25717 211 ft 15 kts 157°
2026-05-04 10:41 53.42934 -6.25644 216 ft 16 kts 156°
2026-05-04 10:41 53.42837 -6.25573 215 ft 15 kts 156°
2026-05-04 10:42 53.42740 -6.25502 220 ft 15 kts 156°
2026-05-04 10:42 53.42664 -6.25483 211 ft 11 kts 205°
2026-05-04 10:42 53.42605 -6.25576 210 ft 12 kts 227°
2026-05-04 10:42 53.42550 -6.25673 210 ft 12 kts 225°
2026-05-04 10:43 53.42495 -6.25765 218 ft 9 kts 225°
2026-05-04 10:44 53.42457 -6.26194 216 ft 5 kts 185°
2026-05-04 10:45 53.42431 -6.26198 212 ft 3 kts 185°
2026-05-04 10:45 53.42427 -6.26198 212 ft 0 kts 185°